TimeMDT,TemperatureF,Dew PointF,Humidity,Sea Level PressureIn,VisibilityMPH,Wind Direction,Wind SpeedMPH,Gust SpeedMPH,PrecipitationIn,Events,Conditions,WindDirDegrees,DateUTC
12:53 AM,30.0,23.0,75,30.01,10.0,Calm,Calm,-,N/A,,Clear,0,2013-03-28 06:53:00
1:53 AM,28.0,21.9,78,30.04,10.0,NNW,3.5,-,N/A,,Clear,330,2013-03-28 07:53:00
2:53 AM,28.9,23.0,78,30.03,10.0,NNW,6.9,-,N/A,,Clear,340,2013-03-28 08:53:00
3:53 AM,28.0,23.0,81,30.03,10.0,NNW,5.8,-,N/A,,Clear,330,2013-03-28 09:53:00
4:53 AM,27.0,21.9,81,30.03,10.0,NW,5.8,-,N/A,,Clear,310,2013-03-28 10:53:00
5:53 AM,24.1,21.0,88,30.06,10.0,North,5.8,-,N/A,,Clear,350,2013-03-28 11:53:00
6:53 AM,28.0,23.0,81,30.07,10.0,North,8.1,-,N/A,,Clear,360,2013-03-28 12:53:00
7:53 AM,33.1,26.1,75,30.09,10.0,NW,6.9,-,N/A,,Clear,320,2013-03-28 13:53:00
8:53 AM,39.9,27.0,60,30.09,10.0,NNW,6.9,-,N/A,,Clear,330,2013-03-28 14:53:00
9:53 AM,51.1,24.1,35,30.06,10.0,WNW,16.1,-,N/A,,Clear,300,2013-03-28 15:53:00
10:53 AM,54.0,23.0,30,30.06,10.0,WNW,13.8,-,N/A,,Clear,290,2013-03-28 16:53:00
11:53 AM,55.0,21.9,28,30.08,10.0,WNW,10.4,18.4,N/A,,Clear,290,2013-03-28 17:53:00
12:53 PM,57.9,19.9,23,30.07,10.0,WNW,11.5,21.9,N/A,,Clear,290,2013-03-28 18:53:00
1:53 PM,60.1,19.9,21,30.06,10.0,NW,10.4,16.1,N/A,,Scattered Clouds,320,2013-03-28 19:53:00
2:53 PM,63.0,18.0,18,30.03,10.0,West,13.8,20.7,N/A,,Partly Cloudy,270,2013-03-28 20:53:00
3:53 PM,62.1,16.0,17,30.03,10.0,West,18.4,27.6,N/A,,Partly Cloudy,280,2013-03-28 21:53:00
4:53 PM,61.0,17.1,18,30.03,10.0,NNW,6.9,-,N/A,,Partly Cloudy,330,2013-03-28 22:53:00
5:53 PM,60.1,17.1,19,30.05,10.0,NW,8.1,-,N/A,,Partly Cloudy,310,2013-03-28 23:53:00
6:53 PM,57.0,17.1,21,30.05,10.0,NW,5.8,-,N/A,,Clear,320,2013-03-29 00:53:00
7:53 PM,46.0,15.1,29,30.08,10.0,NE,6.9,-,N/A,,Clear,50,2013-03-29 01:53:00
8:53 PM,39.9,17.1,40,30.09,10.0,Calm,Calm,-,N/A,,Clear,0,2013-03-29 02:53:00
9:53 PM,37.9,18.0,45,30.07,10.0,Calm,Calm,-,N/A,,Clear,0,2013-03-29 03:53:00
10:53 PM,34.0,17.1,50,30.08,10.0,Calm,Calm,-,N/A,,Clear,0,2013-03-29 04:53:00
11:53 PM,36.0,19.0,50,30.07,10.0,Calm,Calm,-,N/A,,Overcast,0,2013-03-29 05:53:00